Terminal Aerodrome Forecast
Issued by NWS Quad Cities IA IL

Home | Current Version | Previous Version | Text Only | Print | Product List | Glossary On
Versions: 1 2 3 4 5 6 7 8 9 10 11 12 13 14 15 16 17 18 19 20 21 22 23 24 25 26 27 28 29 30 31 32 33 34 35 36 37
000
FTUS43 KDVN 300520
TAFDBQ
TAF
KDBQ 300520Z 3006/3106 06015G24KT P6SM VCSH OVC008
      TEMPO 3006/3007 3SM -RA BR OVC005
     FM300700 04013G20KT 2SM -RA BR OVC005
     FM301900 01012G18KT 5SM BR VCSH OVC007=

USA.gov is the U.S. government's official web portal to all federal, state and local government web resources and services.